Location: Chassagnes
(44.4047°N, 4.1657°E)
Time: 12:57:28
(UTC+00:00)

Okean-O - Pass Details

Date: 27 October 2020
Orbit: 638 x 641 km, 98.2° (Epoch: 23 November)

Event Time Altitude Azimuth Distance (km) Brightness Sun altitude
Rises 17:12:14 0° 132° (SE) 2,937 5.7 -6.5°
Reaches altitude 10° 17:14:45 10° 118° (ESE) 2,032 4.8 -7.0°
Maximum altitude 17:18:17 24° 65° (ENE) 1,338 3.7 -7.6°
Drops below altitude 10° 17:21:49 10° 12° (NNE) 2,043 5.0 -8.2°
Sets 17:24:21 0° 359° (N) 2,956 6.0 -8.6°
